Time,TemperatureF,DewpointF,PressureIn,WindDirection,WindDirectionDegrees,WindSpeedMPH,WindSpeedGustMPH,Humidity,HourlyPrecipIn,Conditions,Clouds,dailyrainin,SoftwareType,DateUTC
2013-05-27 00:01:00,66.0,61.7,30.21,NE,45,0.0,0.0,86,0.00,,,0.00,meteohub,2013-05-27 04:01:00,
2013-05-27 00:02:00,66.0,61.7,30.21,NE,45,0.0,0.0,86,0.00,,,0.00,meteohub,2013-05-27 04:02:00,
2013-05-27 00:04:00,66.0,61.7,30.21,NE,45,0.0,0.0,86,0.00,,,0.00,meteohub,2013-05-27 04:04:00,
2013-05-27 00:07:00,65.8,61.5,30.20,NE,45,0.0,0.0,86,0.00,,,0.00,meteohub,2013-05-27 04:07:00,
2013-05-27 00:12:00,65.7,61.7,30.21,NE,45,0.0,0.0,87,0.00,,,0.00,meteohub,2013-05-27 04:12:00,
2013-05-27 00:17:00,65.7,61.7,30.21,NE,45,0.0,0.0,87,0.00,,,0.00,meteohub,2013-05-27 04:17:00,
2013-05-27 00:22:00,65.5,61.5,30.21,NE,45,0.0,0.0,87,0.00,,,0.00,meteohub,2013-05-27 04:22:00,
2013-05-27 00:27:00,65.3,61.3,30.20,NE,45,0.0,0.0,87,0.00,,,0.00,meteohub,2013-05-27 04:27:00,
2013-05-27 00:32:00,65.1,61.2,30.21,NE,45,0.0,0.0,87,0.00,,,0.00,meteohub,2013-05-27 04:32:00,
2013-05-27 00:37:00,65.1,61.5,30.21,NE,45,0.0,0.0,88,0.00,,,0.00,meteohub,2013-05-27 04:37:00,
2013-05-27 00:42:00,64.9,61.3,30.21,NE,45,0.0,0.0,88,0.00,,,0.00,meteohub,2013-05-27 04:42:00,
2013-05-27 00:47:00,64.9,61.3,30.21,NE,45,0.0,0.0,88,0.00,,,0.00,meteohub,2013-05-27 04:47:00,
2013-05-27 00:52:00,64.8,61.2,30.20,NE,45,0.0,0.0,88,0.00,,,0.00,meteohub,2013-05-27 04:52:00,
2013-05-27 00:57:00,64.8,61.5,30.20,NE,45,0.0,0.0,89,0.00,,,0.00,meteohub,2013-05-27 04:57:00,
2013-05-27 01:02:00,64.8,61.5,30.20,NE,45,0.0,0.0,89,0.00,,,0.00,meteohub,2013-05-27 05:02:00,
2013-05-27 01:07:00,64.6,61.3,30.20,NE,45,0.0,0.0,89,0.00,,,0.00,meteohub,2013-05-27 05:07:00,
2013-05-27 01:12:00,64.6,61.5,30.20,NE,45,0.0,0.0,90,0.00,,,0.00,meteohub,2013-05-27 05:12:00,
2013-05-27 01:17:00,64.6,61.5,30.20,NE,45,0.0,0.0,90,0.00,,,0.00,meteohub,2013-05-27 05:17:00,
2013-05-27 01:22:00,64.4,61.3,30.19,NE,45,0.0,0.0,90,0.00,,,0.00,meteohub,2013-05-27 05:22:00,
2013-05-27 01:27:00,64.4,61.3,30.20,NE,45,0.0,0.0,90,0.00,,,0.00,meteohub,2013-05-27 05:27:00,
2013-05-27 01:32:00,64.2,61.5,30.20,NE,45,0.0,0.0,91,0.00,,,0.00,meteohub,2013-05-27 05:32:00,
2013-05-27 01:37:00,64.2,61.5,30.19,NE,45,0.0,0.0,91,0.00,,,0.00,meteohub,2013-05-27 05:37:00,
2013-05-27 01:42:00,64.2,61.5,30.19,NE,45,0.0,0.0,91,0.00,,,0.00,meteohub,2013-05-27 05:42:00,
2013-05-27 01:47:00,64.0,61.3,30.19,NE,45,0.0,0.0,91,0.00,,,0.00,meteohub,2013-05-27 05:47:00,
2013-05-27 01:52:00,63.9,61.5,30.19,NE,45,0.0,0.0,92,0.00,,,0.00,meteohub,2013-05-27 05:52:00,
2013-05-27 01:57:00,63.9,61.5,30.19,North,0,0.0,0.0,92,0.00,,,0.00,meteohub,2013-05-27 05:57:00,
2013-05-27 02:02:00,63.9,61.5,30.19,North,0,0.0,0.0,92,0.00,,,0.00,meteohub,2013-05-27 06:02:00,
2013-05-27 02:07:00,63.7,61.3,30.19,North,0,0.0,0.0,92,0.00,,,0.00,meteohub,2013-05-27 06:07:00,
2013-05-27 02:12:00,63.7,61.3,30.19,North,0,0.0,0.0,92,0.00,,,0.00,meteohub,2013-05-27 06:12:00,
2013-05-27 02:17:00,63.7,61.7,30.19,North,0,0.0,0.0,93,0.00,,,0.00,meteohub,2013-05-27 06:17:00,
2013-05-27 02:22:00,63.5,61.5,30.19,North,0,0.0,0.0,93,0.00,,,0.00,meteohub,2013-05-27 06:22:00,
2013-05-27 02:27:00,63.5,61.5,30.19,North,0,0.0,0.0,93,0.00,,,0.00,meteohub,2013-05-27 06:27:00,
2013-05-27 02:32:00,63.3,61.3,30.18,North,0,0.0,0.0,93,0.00,,,0.00,meteohub,2013-05-27 06:32:00,
2013-05-27 02:37:00,63.3,61.3,30.19,North,0,0.0,0.0,93,0.00,,,0.00,meteohub,2013-05-27 06:37:00,
2013-05-27 02:42:00,63.3,61.3,30.18,North,0,0.0,0.0,93,0.00,,,0.00,meteohub,2013-05-27 06:42:00,
2013-05-27 02:47:00,63.3,61.5,30.18,North,0,0.0,0.0,94,0.00,,,0.00,meteohub,2013-05-27 06:47:00,
2013-05-27 02:52:00,63.5,61.7,30.18,North,0,0.0,0.0,94,0.00,,,0.00,meteohub,2013-05-27 06:52:00,
2013-05-27 02:57:00,63.7,61.9,30.18,North,0,0.0,0.0,94,0.00,,,0.00,meteohub,2013-05-27 06:57:00,
2013-05-27 03:02:00,63.7,62.2,30.18,North,0,0.0,0.0,95,0.00,,,0.00,meteohub,2013-05-27 07:02:00,
2013-05-27 03:07:00,63.7,62.2,30.18,North,0,0.0,0.0,95,0.00,,,0.00,meteohub,2013-05-27 07:07:00,
2013-05-27 03:12:00,63.7,62.2,30.18,North,0,0.0,0.0,95,0.00,,,0.00,meteohub,2013-05-27 07:12:00,
2013-05-27 03:17:00,63.7,61.9,30.18,North,0,0.0,0.0,94,0.00,,,0.00,meteohub,2013-05-27 07:17:00,
2013-05-27 03:22:00,63.5,61.7,30.18,North,0,0.0,0.0,94,0.00,,,0.00,meteohub,2013-05-27 07:22:00,
2013-05-27 03:27:00,63.5,61.7,30.18,North,0,0.0,0.0,94,0.00,,,0.00,meteohub,2013-05-27 07:27:00,
2013-05-27 03:32:00,63.3,61.5,30.17,North,0,0.0,0.0,94,0.00,,,0.00,meteohub,2013-05-27 07:32:00,
2013-05-27 03:37:00,63.3,61.5,30.17,North,0,0.0,0.0,94,0.00,,,0.00,meteohub,2013-05-27 07:37:00,
2013-05-27 03:42:00,63.1,61.3,30.17,North,0,0.0,0.0,94,0.00,,,0.00,meteohub,2013-05-27 07:42:00,
2013-05-27 03:47:00,63.1,61.3,30.17,North,0,0.0,0.0,94,0.00,,,0.00,meteohub,2013-05-27 07:47:00,
2013-05-27 03:52:00,63.1,61.3,30.17,North,0,0.0,0.0,94,0.00,,,0.00,meteohub,2013-05-27 07:52:00,
2013-05-27 03:57:00,63.1,61.3,30.17,North,0,0.0,0.0,94,0.00,,,0.00,meteohub,2013-05-27 07:57:00,
2013-05-27 04:02:00,63.1,61.3,30.17,North,0,0.0,0.0,94,0.00,,,0.00,meteohub,2013-05-27 08:02:00,
2013-05-27 04:07:00,63.3,61.5,30.17,North,0,0.0,0.0,94,0.00,,,0.00,meteohub,2013-05-27 08:07:00,
2013-05-27 04:12:00,63.3,61.9,30.17,North,0,0.0,0.0,95,0.00,,,0.00,meteohub,2013-05-27 08:12:00,
2013-05-27 04:17:00,63.3,61.9,30.17,North,0,0.0,0.0,95,0.00,,,0.00,meteohub,2013-05-27 08:17:00,
2013-05-27 04:22:00,63.3,61.9,30.17,North,0,0.0,0.0,95,0.00,,,0.00,meteohub,2013-05-27 08:22:00,
2013-05-27 04:27:00,63.3,61.9,30.16,North,0,0.0,0.0,95,0.00,,,0.00,meteohub,2013-05-27 08:27:00,
2013-05-27 04:32:00,63.3,61.9,30.16,North,0,0.0,0.0,95,0.00,,,0.00,meteohub,2013-05-27 08:32:00,
2013-05-27 04:37:00,63.5,62.1,30.16,North,0,0.0,0.0,95,0.00,,,0.00,meteohub,2013-05-27 08:37:00,
2013-05-27 04:42:00,63.5,62.4,30.16,North,0,0.0,0.0,96,0.00,,,0.00,meteohub,2013-05-27 08:42:00,
2013-05-27 04:47:00,63.5,62.4,30.16,North,0,0.0,0.0,96,0.00,,,0.00,meteohub,2013-05-27 08:47:00,
2013-05-27 04:52:00,63.5,62.4,30.16,North,0,0.0,0.0,96,0.00,,,0.00,meteohub,2013-05-27 08:52:00,
2013-05-27 04:57:00,63.5,62.1,30.16,North,0,0.0,0.0,95,0.00,,,0.00,meteohub,2013-05-27 08:57:00,
2013-05-27 05:02:00,63.5,62.1,30.17,North,0,0.0,0.0,95,0.00,,,0.00,meteohub,2013-05-27 09:02:00,
2013-05-27 05:07:00,63.3,61.9,30.17,North,0,0.0,0.0,95,0.00,,,0.00,meteohub,2013-05-27 09:07:00,
2013-05-27 05:12:00,63.3,61.9,30.17,West,270,0.0,0.0,95,0.00,,,0.00,meteohub,2013-05-27 09:12:00,
2013-05-27 05:17:00,63.1,61.7,30.17,North,0,0.0,0.0,95,0.00,,,0.00,meteohub,2013-05-27 09:17:00,
2013-05-27 05:22:00,63.1,61.7,30.17,North,0,0.0,0.0,95,0.00,,,0.00,meteohub,2013-05-27 09:22:00,
2013-05-27 05:27:00,63.1,61.7,30.17,North,0,0.0,0.0,95,0.00,,,0.00,meteohub,2013-05-27 09:27:00,
2013-05-27 05:32:00,63.1,61.7,30.17,North,0,0.0,0.0,95,0.00,,,0.00,meteohub,2013-05-27 09:32:00,
2013-05-27 05:37:00,63.0,61.5,30.17,North,0,0.0,0.0,95,0.00,,,0.00,meteohub,2013-05-27 09:37:00,
2013-05-27 05:42:00,62.8,61.3,30.17,North,0,0.0,0.0,95,0.00,,,0.00,meteohub,2013-05-27 09:42:00,
2013-05-27 05:47:00,62.8,61.7,30.17,North,0,0.0,0.0,96,0.00,,,0.00,meteohub,2013-05-27 09:47:00,
2013-05-27 05:52:00,62.8,61.7,30.17,North,0,0.0,0.0,96,0.00,,,0.00,meteohub,2013-05-27 09:52:00,
2013-05-27 05:57:00,62.8,61.7,30.17,North,0,0.0,0.0,96,0.00,,,0.00,meteohub,2013-05-27 09:57:00,
2013-05-27 06:02:00,62.8,61.7,30.17,North,0,0.0,0.0,96,0.00,,,0.00,meteohub,2013-05-27 10:02:00,
2013-05-27 06:07:00,62.8,61.7,30.17,North,0,0.0,0.0,96,0.00,,,0.00,meteohub,2013-05-27 10:07:00,
2013-05-27 06:12:00,62.6,61.5,30.18,North,0,0.0,0.0,96,0.00,,,0.00,meteohub,2013-05-27 10:12:00,
2013-05-27 06:17:00,62.4,61.5,30.17,North,0,0.0,0.0,97,0.00,,,0.00,meteohub,2013-05-27 10:17:00,
2013-05-27 06:22:00,62.2,61.3,30.18,North,0,0.0,0.0,97,0.00,,,0.00,meteohub,2013-05-27 10:22:00,
2013-05-27 06:27:00,62.1,61.2,30.18,North,0,0.0,0.0,97,0.00,,,0.00,meteohub,2013-05-27 10:27:00,
2013-05-27 06:32:00,62.1,61.2,30.18,North,0,0.0,0.0,97,0.00,,,0.00,meteohub,2013-05-27 10:32:00,
2013-05-27 06:37:00,62.1,61.2,30.18,North,0,0.0,0.0,97,0.00,,,0.00,meteohub,2013-05-27 10:37:00,
2013-05-27 06:42:00,62.1,61.2,30.18,North,0,0.0,0.0,97,0.00,,,0.00,meteohub,2013-05-27 10:42:00,
2013-05-27 06:47:00,62.1,61.2,30.18,North,0,0.0,0.0,97,0.00,,,0.00,meteohub,2013-05-27 10:47:00,
2013-05-27 06:52:00,62.1,61.2,30.18,North,0,0.0,0.0,97,0.00,,,0.00,meteohub,2013-05-27 10:52:00,
2013-05-27 06:57:00,62.2,61.7,30.18,North,0,0.0,0.0,98,0.00,,,0.00,meteohub,2013-05-27 10:57:00,
2013-05-27 07:02:00,62.2,61.7,30.18,North,0,0.0,0.0,98,0.00,,,0.00,meteohub,2013-05-27 11:02:00,
2013-05-27 07:07:00,62.4,61.9,30.19,North,0,0.0,0.0,98,0.00,,,0.00,meteohub,2013-05-27 11:07:00,
2013-05-27 07:12:00,62.6,61.7,30.18,North,0,0.0,0.0,97,0.00,,,0.00,meteohub,2013-05-27 11:12:00,
2013-05-27 07:17:00,63.0,62.1,30.19,North,0,0.0,0.0,97,0.00,,,0.00,meteohub,2013-05-27 11:17:00,
2013-05-27 07:22:00,63.3,62.4,30.19,North,0,0.0,0.0,97,0.00,,,0.00,meteohub,2013-05-27 11:22:00,
2013-05-27 07:27:00,63.5,62.6,30.19,North,0,0.0,0.0,97,0.00,,,0.00,meteohub,2013-05-27 11:27:00,
2013-05-27 07:32:00,63.9,63.0,30.19,North,0,0.0,0.0,97,0.00,,,0.00,meteohub,2013-05-27 11:32:00,
2013-05-27 07:37:00,64.4,64.0,30.18,North,0,0.0,0.0,99,0.00,,,0.00,meteohub,2013-05-27 11:37:00,
2013-05-27 07:42:00,64.8,64.4,30.19,North,0,0.0,0.0,99,0.00,,,0.00,meteohub,2013-05-27 11:42:00,
2013-05-27 07:47:00,65.3,64.9,30.18,NE,45,0.0,0.0,99,0.00,,,0.00,meteohub,2013-05-27 11:47:00,
2013-05-27 07:52:00,66.0,65.7,30.19,SE,135,0.0,0.0,99,0.00,,,0.00,meteohub,2013-05-27 11:52:00,
2013-05-27 07:57:00,66.7,65.8,30.19,NE,45,0.0,0.0,97,0.00,,,0.00,meteohub,2013-05-27 11:57:00,
2013-05-27 08:02:00,67.1,66.2,30.19,North,0,0.0,0.0,97,0.00,,,0.00,meteohub,2013-05-27 12:02:00,
2013-05-27 08:07:00,68.0,66.7,30.19,NE,45,0.0,0.0,96,0.00,,,0.00,meteohub,2013-05-27 12:07:00,
2013-05-27 08:12:00,68.5,67.1,30.19,East,90,0.0,0.0,95,0.00,,,0.00,meteohub,2013-05-27 12:12:00,
2013-05-27 08:17:00,69.3,67.8,30.19,East,90,0.0,0.0,95,0.00,,,0.00,meteohub,2013-05-27 12:17:00,
2013-05-27 08:22:00,69.8,67.6,30.19,East,90,1.0,0.0,93,0.00,,,0.00,meteohub,2013-05-27 12:22:00,
2013-05-27 08:27:00,70.5,67.8,30.19,SSE,158,2.0,2.0,91,0.00,,,0.00,meteohub,2013-05-27 12:27:00,
2013-05-27 08:32:00,71.2,67.8,30.19,NE,45,1.0,2.0,89,0.00,,,0.00,meteohub,2013-05-27 12:32:00,
2013-05-27 08:37:00,71.8,67.3,30.19,East,90,2.0,2.0,86,0.00,,,0.00,meteohub,2013-05-27 12:37:00,
2013-05-27 08:42:00,72.3,67.3,30.18,East,90,2.0,4.0,84,0.00,,,0.00,meteohub,2013-05-27 12:42:00,
2013-05-27 08:47:00,73.0,67.3,30.18,NE,45,3.0,4.0,82,0.00,,,0.00,meteohub,2013-05-27 12:47:00,
2013-05-27 08:52:00,73.4,67.3,30.18,West,270,2.0,4.0,81,0.00,,,0.00,meteohub,2013-05-27 12:52:00,
2013-05-27 08:57:00,73.9,67.5,30.18,SE,135,4.0,4.0,80,0.00,,,0.00,meteohub,2013-05-27 12:57:00,
2013-05-27 09:02:00,74.5,66.7,30.18,SE,135,1.0,4.0,77,0.00,,,0.00,meteohub,2013-05-27 13:02:00,
2013-05-27 09:07:00,75.2,67.1,30.19,North,0,2.0,5.0,76,0.00,,,0.00,meteohub,2013-05-27 13:07:00,
2013-05-27 09:12:00,76.1,67.3,30.19,SE,135,2.0,5.0,74,0.00,,,0.00,meteohub,2013-05-27 13:12:00,
2013-05-27 09:17:00,76.6,67.3,30.19,SE,135,2.0,5.0,73,0.00,,,0.00,meteohub,2013-05-27 13:17:00,
2013-05-27 09:22:00,76.8,66.2,30.19,South,180,2.0,4.0,70,0.00,,,0.00,meteohub,2013-05-27 13:22:00,
2013-05-27 09:27:00,77.0,65.7,30.19,East,90,2.0,4.0,68,0.00,,,0.00,meteohub,2013-05-27 13:27:00,
2013-05-27 09:32:00,77.0,65.7,30.19,ESE,113,3.0,4.0,68,0.00,,,0.00,meteohub,2013-05-27 13:32:00,
2013-05-27 09:37:00,77.4,65.1,30.19,SE,135,2.0,6.0,66,0.00,,,0.00,meteohub,2013-05-27 13:37:00,
2013-05-27 09:42:00,77.5,64.8,30.19,North,0,2.0,6.0,65,0.00,,,0.00,meteohub,2013-05-27 13:42:00,
2013-05-27 09:47:00,78.3,65.5,30.19,East,90,2.0,6.0,65,0.00,,,0.00,meteohub,2013-05-27 13:47:00,
2013-05-27 09:52:00,78.6,65.8,30.19,East,90,4.0,4.0,65,0.00,,,0.00,meteohub,2013-05-27 13:52:00,
2013-05-27 09:57:00,79.2,65.8,30.20,East,90,2.0,4.0,64,0.00,,,0.00,meteohub,2013-05-27 13:57:00,
2013-05-27 10:02:00,79.3,65.1,30.20,South,180,2.0,4.0,62,0.00,,,0.00,meteohub,2013-05-27 14:02:00,
2013-05-27 10:07:00,79.2,65.5,30.20,North,0,2.0,6.0,63,0.00,,,0.00,meteohub,2013-05-27 14:07:00,
2013-05-27 10:12:00,79.5,65.3,30.20,East,90,2.0,6.0,62,0.00,,,0.00,meteohub,2013-05-27 14:12:00,
2013-05-27 10:17:00,79.7,65.1,30.20,East,90,3.0,6.0,61,0.00,,,0.00,meteohub,2013-05-27 14:17:00,
2013-05-27 10:22:00,80.2,65.5,30.20,ESE,113,4.0,6.0,61,0.00,,,0.00,meteohub,2013-05-27 14:22:00,
2013-05-27 10:27:00,80.8,64.0,30.20,SW,225,6.0,6.0,57,0.00,,,0.00,meteohub,2013-05-27 14:27:00,
2013-05-27 10:32:00,80.8,64.6,30.20,West,270,2.0,6.0,58,0.00,,,0.00,meteohub,2013-05-27 14:32:00,
2013-05-27 10:37:00,81.1,64.9,30.20,South,180,2.0,6.0,58,0.00,,,0.00,meteohub,2013-05-27 14:37:00,
2013-05-27 10:42:00,81.0,64.8,30.19,East,90,2.0,6.0,58,0.00,,,0.00,meteohub,2013-05-27 14:42:00,
2013-05-27 10:47:00,81.1,64.9,30.20,East,90,3.0,4.0,58,0.00,,,0.00,meteohub,2013-05-27 14:47:00,
2013-05-27 10:52:00,81.1,64.0,30.20,ENE,68,4.0,4.0,56,0.00,,,0.00,meteohub,2013-05-27 14:52:00,
2013-05-27 10:57:00,81.1,64.4,30.20,SE,135,3.0,4.0,57,0.00,,,0.00,meteohub,2013-05-27 14:57:00,
2013-05-27 11:02:00,81.5,64.2,30.20,South,180,3.0,4.0,56,0.00,,,0.00,meteohub,2013-05-27 15:02:00,
2013-05-27 11:07:00,81.7,64.4,30.19,SE,135,2.0,4.0,56,0.00,,,0.00,meteohub,2013-05-27 15:07:00,
2013-05-27 11:12:00,82.4,65.7,30.20,East,90,2.0,4.0,57,0.00,,,0.00,meteohub,2013-05-27 15:12:00,
2013-05-27 11:17:00,82.9,65.1,30.20,NE,45,3.0,4.0,55,0.00,,,0.00,meteohub,2013-05-27 15:17:00,
2013-05-27 11:22:00,83.3,64.9,30.20,East,90,4.0,4.0,54,0.00,,,0.00,meteohub,2013-05-27 15:22:00,
2013-05-27 11:27:00,83.3,64.4,30.20,NW,315,3.0,4.0,53,0.00,,,0.00,meteohub,2013-05-27 15:27:00,
2013-05-27 11:32:00,83.5,64.6,30.20,NE,45,4.0,5.0,53,0.00,,,0.00,meteohub,2013-05-27 15:32:00,
2013-05-27 11:37:00,83.8,64.4,30.20,NE,45,2.0,5.0,52,0.00,,,0.00,meteohub,2013-05-27 15:37:00,
2013-05-27 11:42:00,84.0,64.6,30.20,North,0,0.0,5.0,52,0.00,,,0.00,meteohub,2013-05-27 15:42:00,
2013-05-27 11:47:00,84.2,63.5,30.20,East,90,3.0,5.0,50,0.00,,,0.00,meteohub,2013-05-27 15:47:00,
2013-05-27 11:52:00,84.2,64.0,30.20,West,270,3.0,4.0,51,0.00,,,0.00,meteohub,2013-05-27 15:52:00,
2013-05-27 11:57:00,84.4,63.1,30.20,East,90,2.0,4.0,49,0.00,,,0.00,meteohub,2013-05-27 15:57:00,
2013-05-27 12:02:00,84.6,63.9,30.19,SE,135,4.0,5.0,50,0.00,,,0.00,meteohub,2013-05-27 16:02:00,
2013-05-27 12:07:00,84.6,64.4,30.20,NE,45,2.0,5.0,51,0.00,,,0.00,meteohub,2013-05-27 16:07:00,
2013-05-27 12:12:00,85.6,65.5,30.20,East,90,3.0,5.0,51,0.00,,,0.00,meteohub,2013-05-27 16:12:00,
2013-05-27 12:18:00,85.6,64.9,30.20,East,90,3.0,6.0,50,0.00,,,0.00,meteohub,2013-05-27 16:18:00,
2013-05-27 12:23:00,85.6,64.9,30.19,East,90,4.0,6.0,50,0.00,,,0.00,meteohub,2013-05-27 16:23:00,
2013-05-27 12:28:00,85.6,64.2,30.20,SW,225,1.0,11.0,49,0.00,,,0.00,meteohub,2013-05-27 16:28:00,
2013-05-27 12:33:00,85.6,64.9,30.20,NE,45,2.0,11.0,50,0.00,,,0.00,meteohub,2013-05-27 16:33:00,
2013-05-27 12:38:00,86.0,64.6,30.19,SSE,158,3.0,11.0,49,0.00,,,0.00,meteohub,2013-05-27 16:38:00,
2013-05-27 12:43:00,86.0,63.5,30.19,NW,315,2.0,4.0,47,0.00,,,0.00,meteohub,2013-05-27 16:43:00,
2013-05-27 12:48:00,85.6,64.2,30.20,ENE,68,3.0,6.0,49,0.00,,,0.00,meteohub,2013-05-27 16:48:00,
2013-05-27 12:53:00,86.0,64.0,30.19,North,0,2.0,11.0,48,0.00,,,0.00,meteohub,2013-05-27 16:53:00,
2013-05-27 12:58:00,86.5,64.6,30.19,NE,45,3.0,11.0,48,0.00,,,0.00,meteohub,2013-05-27 16:58:00,
2013-05-27 13:03:00,87.1,63.9,30.19,East,90,4.0,11.0,46,0.00,,,0.00,meteohub,2013-05-27 17:03:00,
2013-05-27 13:08:00,87.3,65.1,30.18,North,0,4.0,4.0,48,0.00,,,0.00,meteohub,2013-05-27 17:08:00,
2013-05-27 13:13:00,87.3,64.0,30.19,NE,45,2.0,5.0,46,0.00,,,0.00,meteohub,2013-05-27 17:13:00,
2013-05-27 13:18:00,87.3,64.6,30.19,SW,225,4.0,5.0,47,0.00,,,0.00,meteohub,2013-05-27 17:18:00,
2013-05-27 13:23:00,86.9,63.7,30.19,North,0,2.0,6.0,46,0.00,,,0.00,meteohub,2013-05-27 17:23:00,
2013-05-27 13:28:00,86.9,64.2,30.19,NE,45,4.0,7.0,47,0.00,,,0.00,meteohub,2013-05-27 17:28:00,
2013-05-27 13:33:00,87.6,65.5,30.19,NE,45,3.0,7.0,48,0.00,,,0.00,meteohub,2013-05-27 17:33:00,
2013-05-27 13:38:00,88.0,64.0,30.19,East,90,5.0,7.0,45,0.00,,,0.00,meteohub,2013-05-27 17:38:00,
2013-05-27 13:43:00,88.0,64.6,30.18,SE,135,4.0,5.0,46,0.00,,,0.00,meteohub,2013-05-27 17:43:00,
2013-05-27 13:48:00,87.8,64.4,30.18,NNE,23,2.0,6.0,46,0.00,,,0.00,meteohub,2013-05-27 17:48:00,
2013-05-27 13:53:00,88.0,64.6,30.18,NE,45,4.0,6.0,46,0.00,,,0.00,meteohub,2013-05-27 17:53:00,
2013-05-27 13:58:00,87.4,64.0,30.18,NE,45,2.0,6.0,46,0.00,,,0.00,meteohub,2013-05-27 17:58:00,
2013-05-27 14:03:00,87.6,64.9,30.18,SE,135,3.0,5.0,47,0.00,,,0.00,meteohub,2013-05-27 18:03:00,
2013-05-27 14:09:00,88.0,64.6,30.17,NE,45,2.0,5.0,46,0.00,,,0.00,meteohub,2013-05-27 18:09:00,
2013-05-27 14:14:00,88.2,63.5,30.18,SW,225,4.0,6.0,44,0.00,,,0.00,meteohub,2013-05-27 18:14:00,
2013-05-27 14:19:00,88.0,63.3,30.17,NE,45,4.0,6.0,44,0.00,,,0.00,meteohub,2013-05-27 18:19:00,
2013-05-27 14:24:00,87.8,64.4,30.18,West,270,4.0,6.0,46,0.00,,,0.00,meteohub,2013-05-27 18:24:00,
2013-05-27 14:29:00,88.0,64.0,30.17,East,90,2.0,5.0,45,0.00,,,0.00,meteohub,2013-05-27 18:29:00,
2013-05-27 14:34:00,87.6,64.9,30.17,East,90,3.0,5.0,47,0.00,,,0.00,meteohub,2013-05-27 18:34:00,
2013-05-27 14:39:00,87.8,63.9,30.17,North,0,3.0,5.0,45,0.00,,,0.00,meteohub,2013-05-27 18:39:00,
2013-05-27 14:44:00,88.2,64.2,30.17,East,90,5.0,9.0,45,0.00,,,0.00,meteohub,2013-05-27 18:44:00,
2013-05-27 14:49:00,88.7,64.6,30.17,East,90,8.0,11.0,45,0.00,,,0.00,meteohub,2013-05-27 18:49:00,
2013-05-27 14:54:00,88.7,64.0,30.17,NE,45,3.0,11.0,44,0.00,,,0.00,meteohub,2013-05-27 18:54:00,
2013-05-27 14:59:00,88.5,64.4,30.17,East,90,3.0,11.0,45,0.00,,,0.00,meteohub,2013-05-27 18:59:00,
2013-05-27 15:04:00,88.3,63.7,30.16,East,90,2.0,8.0,44,0.00,,,0.00,meteohub,2013-05-27 19:04:00,
2013-05-27 15:09:00,88.3,63.0,30.16,East,90,3.0,6.0,43,0.00,,,0.00,meteohub,2013-05-27 19:09:00,
2013-05-27 15:14:00,87.8,63.1,30.15,NW,315,5.0,5.0,44,0.00,,,0.00,meteohub,2013-05-27 19:14:00,
2013-05-27 15:19:00,88.0,63.3,30.16,East,90,4.0,5.0,44,0.00,,,0.00,meteohub,2013-05-27 19:19:00,
2013-05-27 15:24:00,88.2,63.5,30.15,West,270,4.0,5.0,44,0.00,,,0.00,meteohub,2013-05-27 19:24:00,
2013-05-27 15:29:00,88.0,64.0,30.16,East,90,5.0,5.0,45,0.00,,,0.00,meteohub,2013-05-27 19:29:00,
2013-05-27 15:35:00,87.6,63.7,30.15,South,180,3.0,5.0,45,0.00,,,0.00,meteohub,2013-05-27 19:35:00,
2013-05-27 15:40:00,87.3,64.6,30.15,East,90,2.0,5.0,47,0.00,,,0.00,meteohub,2013-05-27 19:40:00,
2013-05-27 15:45:00,87.8,65.1,30.15,SE,135,4.0,5.0,47,0.00,,,0.00,meteohub,2013-05-27 19:45:00,
2013-05-27 15:50:00,87.8,63.9,30.15,NE,45,4.0,4.0,45,0.00,,,0.00,meteohub,2013-05-27 19:50:00,
2013-05-27 15:55:00,87.8,63.9,30.14,SW,225,2.0,4.0,45,0.00,,,0.00,meteohub,2013-05-27 19:55:00,
2013-05-27 16:00:00,87.8,63.9,30.14,SW,225,2.0,4.0,45,0.00,,,0.00,meteohub,2013-05-27 20:00:00,
2013-05-27 16:05:00,87.8,64.4,30.14,South,180,2.0,4.0,46,0.00,,,0.00,meteohub,2013-05-27 20:05:00,
2013-05-27 16:10:00,88.2,64.8,30.14,NE,45,4.0,4.0,46,0.00,,,0.00,meteohub,2013-05-27 20:10:00,
2013-05-27 16:15:00,88.7,64.6,30.14,East,90,4.0,4.0,45,0.00,,,0.00,meteohub,2013-05-27 20:15:00,
2013-05-27 16:20:00,88.2,63.5,30.14,NW,315,4.0,6.0,44,0.00,,,0.00,meteohub,2013-05-27 20:20:00,
2013-05-27 16:25:00,88.0,63.3,30.14,SE,135,3.0,6.0,44,0.00,,,0.00,meteohub,2013-05-27 20:25:00,
2013-05-27 16:30:00,87.6,64.2,30.13,NW,315,2.0,6.0,46,0.00,,,0.00,meteohub,2013-05-27 20:30:00,
2013-05-27 16:35:00,87.4,64.8,30.14,NE,45,4.0,5.0,47,0.00,,,0.00,meteohub,2013-05-27 20:35:00,
2013-05-27 16:41:00,87.6,64.2,30.14,East,90,2.0,5.0,46,0.00,,,0.00,meteohub,2013-05-27 20:41:00,
2013-05-27 16:46:00,87.1,64.4,30.13,ENE,68,2.0,5.0,47,0.00,,,0.00,meteohub,2013-05-27 20:46:00,
2013-05-27 16:51:00,86.5,64.6,30.13,North,0,4.0,6.0,48,0.00,,,0.00,meteohub,2013-05-27 20:51:00,
2013-05-27 16:56:00,86.7,64.8,30.13,NW,315,5.0,6.0,48,0.00,,,0.00,meteohub,2013-05-27 20:56:00,
2013-05-27 17:01:00,86.7,64.8,30.14,NE,45,7.0,7.0,48,0.00,,,0.00,meteohub,2013-05-27 21:01:00,
2013-05-27 17:06:00,87.1,64.9,30.13,NW,315,3.0,7.0,48,0.00,,,0.00,meteohub,2013-05-27 21:06:00,
2013-05-27 17:11:00,87.1,64.4,30.13,NE,45,4.0,7.0,47,0.00,,,0.00,meteohub,2013-05-27 21:11:00,
2013-05-27 17:16:00,86.9,65.5,30.13,East,90,2.0,7.0,49,0.00,,,0.00,meteohub,2013-05-27 21:16:00,
2013-05-27 17:21:00,86.7,64.8,30.13,East,90,4.0,4.0,48,0.00,,,0.00,meteohub,2013-05-27 21:21:00,
2013-05-27 17:26:00,86.5,64.6,30.12,NE,45,3.0,4.0,48,0.00,,,0.00,meteohub,2013-05-27 21:26:00,
2013-05-27 17:31:00,86.2,64.8,30.13,East,90,4.0,4.0,49,0.00,,,0.00,meteohub,2013-05-27 21:31:00,
2013-05-27 17:36:00,85.8,64.9,30.12,SE,135,4.0,4.0,50,0.00,,,0.00,meteohub,2013-05-27 21:36:00,
2013-05-27 17:41:00,85.8,64.9,30.12,NE,45,2.0,4.0,50,0.00,,,0.00,meteohub,2013-05-27 21:41:00,
2013-05-27 17:46:00,85.5,65.3,30.12,SW,225,2.0,5.0,51,0.00,,,0.00,meteohub,2013-05-27 21:46:00,
2013-05-27 17:51:00,84.9,64.8,30.12,NE,45,4.0,5.0,51,0.00,,,0.00,meteohub,2013-05-27 21:51:00,
2013-05-27 17:56:00,84.4,64.8,30.13,East,90,3.0,5.0,52,0.00,,,0.00,meteohub,2013-05-27 21:56:00,
2013-05-27 18:01:00,84.0,66.2,30.13,NE,45,2.0,5.0,55,0.00,,,0.00,meteohub,2013-05-27 22:01:00,
2013-05-27 18:07:00,84.2,65.3,30.13,East,90,4.0,5.0,53,0.00,,,0.00,meteohub,2013-05-27 22:07:00,
2013-05-27 18:12:00,84.4,65.8,30.13,NE,45,3.0,4.0,54,0.00,,,0.00,meteohub,2013-05-27 22:12:00,
2013-05-27 18:17:00,84.4,65.3,30.13,SE,135,3.0,4.0,53,0.00,,,0.00,meteohub,2013-05-27 22:17:00,
2013-05-27 18:22:00,84.6,65.5,30.13,East,90,3.0,4.0,53,0.00,,,0.00,meteohub,2013-05-27 22:22:00,
2013-05-27 18:27:00,84.2,65.3,30.13,NE,45,3.0,4.0,53,0.00,,,0.00,meteohub,2013-05-27 22:27:00,
2013-05-27 18:32:00,83.8,65.5,30.12,NE,45,3.0,4.0,54,0.00,,,0.00,meteohub,2013-05-27 22:32:00,
2013-05-27 18:37:00,83.7,65.8,30.13,ENE,68,4.0,4.0,55,0.00,,,0.00,meteohub,2013-05-27 22:37:00,
2013-05-27 18:42:00,82.8,64.9,30.13,ENE,68,2.0,4.0,55,0.00,,,0.00,meteohub,2013-05-27 22:42:00,
2013-05-27 18:47:00,82.2,64.4,30.13,North,0,3.0,4.0,55,0.00,,,0.00,meteohub,2013-05-27 22:47:00,
2013-05-27 18:52:00,81.9,65.1,30.12,SW,225,3.0,4.0,57,0.00,,,0.00,meteohub,2013-05-27 22:52:00,
2013-05-27 18:57:00,81.3,64.6,30.12,East,90,2.0,4.0,57,0.00,,,0.00,meteohub,2013-05-27 22:57:00,
2013-05-27 19:02:00,81.0,64.2,30.13,South,180,3.0,4.0,57,0.00,,,0.00,meteohub,2013-05-27 23:02:00,
2013-05-27 19:07:00,80.6,64.4,30.13,North,0,2.0,4.0,58,0.00,,,0.00,meteohub,2013-05-27 23:07:00,
2013-05-27 19:12:00,80.4,64.8,30.12,SE,135,2.0,4.0,59,0.00,,,0.00,meteohub,2013-05-27 23:12:00,
2013-05-27 19:17:00,80.1,64.9,30.13,South,180,2.0,4.0,60,0.00,,,0.00,meteohub,2013-05-27 23:17:00,
2013-05-27 19:22:00,79.9,65.3,30.13,East,90,3.0,4.0,61,0.00,,,0.00,meteohub,2013-05-27 23:22:00,
2013-05-27 19:27:00,79.5,64.9,30.13,NW,315,2.0,4.0,61,0.00,,,0.00,meteohub,2013-05-27 23:27:00,
2013-05-27 19:33:00,79.2,64.6,30.13,NE,45,2.0,4.0,61,0.00,,,0.00,meteohub,2013-05-27 23:33:00,
2013-05-27 19:38:00,78.8,64.8,30.13,NW,315,2.0,4.0,62,0.00,,,0.00,meteohub,2013-05-27 23:38:00,
2013-05-27 19:43:00,78.6,64.9,30.13,East,90,2.0,4.0,63,0.00,,,0.00,meteohub,2013-05-27 23:43:00,
2013-05-27 19:48:00,78.3,64.6,30.13,East,90,2.0,4.0,63,0.00,,,0.00,meteohub,2013-05-27 23:48:00,
2013-05-27 19:53:00,77.7,64.0,30.13,West,270,7.0,7.0,63,0.00,,,0.00,meteohub,2013-05-27 23:53:00,
2013-05-27 19:58:00,77.7,64.6,30.14,East,90,3.0,4.0,64,0.00,,,0.00,meteohub,2013-05-27 23:58:00,
2013-05-27 20:03:00,77.5,64.4,30.13,SW,225,3.0,7.0,64,0.00,,,0.00,meteohub,2013-05-28 00:03:00,
2013-05-27 20:08:00,77.4,64.8,30.14,East,90,2.0,7.0,65,0.00,,,0.00,meteohub,2013-05-28 00:08:00,
2013-05-27 20:13:00,77.0,64.4,30.14,NE,45,0.0,4.0,65,0.00,,,0.00,meteohub,2013-05-28 00:13:00,
2013-05-27 20:18:00,76.8,64.6,30.14,NE,45,2.0,4.0,66,0.00,,,0.00,meteohub,2013-05-28 00:18:00,
2013-05-27 20:23:00,76.6,64.9,30.14,SW,225,2.0,2.0,67,0.00,,,0.00,meteohub,2013-05-28 00:23:00,
2013-05-27 20:28:00,76.5,64.8,30.14,NE,45,2.0,7.0,67,0.00,,,0.00,meteohub,2013-05-28 00:28:00,
2013-05-27 20:33:00,76.3,64.6,30.14,East,90,3.0,7.0,67,0.00,,,0.00,meteohub,2013-05-28 00:33:00,
2013-05-27 20:38:00,76.1,64.4,30.14,East,90,2.0,7.0,67,0.00,,,0.00,meteohub,2013-05-28 00:38:00,
2013-05-27 20:43:00,75.9,64.6,30.14,South,180,0.0,4.0,68,0.00,,,0.00,meteohub,2013-05-28 00:43:00,
2013-05-27 20:48:00,75.7,64.4,30.14,East,90,2.0,4.0,68,0.00,,,0.00,meteohub,2013-05-28 00:48:00,
2013-05-27 20:54:00,75.6,64.8,30.14,North,0,1.0,3.0,69,0.00,,,0.00,meteohub,2013-05-28 00:54:00,
2013-05-27 20:59:00,75.4,64.6,30.14,SSE,158,2.0,2.0,69,0.00,,,0.00,meteohub,2013-05-28 00:59:00,
2013-05-27 21:04:00,75.2,64.8,30.14,SE,135,2.0,3.0,70,0.00,,,0.00,meteohub,2013-05-28 01:04:00,
2013-05-27 21:09:00,75.0,64.9,30.14,East,90,2.0,3.0,71,0.00,,,0.00,meteohub,2013-05-28 01:09:00,
2013-05-27 21:14:00,74.8,65.1,30.15,NE,45,2.0,3.0,72,0.00,,,0.00,meteohub,2013-05-28 01:14:00,
2013-05-27 21:19:00,74.8,65.1,30.15,North,0,2.0,2.0,72,0.00,,,0.00,meteohub,2013-05-28 01:19:00,
2013-05-27 21:24:00,74.7,65.5,30.15,East,90,2.0,2.0,73,0.00,,,0.00,meteohub,2013-05-28 01:24:00,
2013-05-27 21:29:00,74.5,65.3,30.14,South,180,2.0,2.0,73,0.00,,,0.00,meteohub,2013-05-28 01:29:00,
2013-05-27 21:34:00,74.3,65.5,30.15,East,90,2.0,2.0,74,0.00,,,0.00,meteohub,2013-05-28 01:34:00,
2013-05-27 21:39:00,74.1,65.3,30.15,SW,225,2.0,3.0,74,0.00,,,0.00,meteohub,2013-05-28 01:39:00,
2013-05-27 21:44:00,74.1,65.7,30.15,East,90,2.0,3.0,75,0.00,,,0.00,meteohub,2013-05-28 01:44:00,
2013-05-27 21:49:00,73.9,65.5,30.16,East,90,2.0,3.0,75,0.00,,,0.00,meteohub,2013-05-28 01:49:00,
2013-05-27 21:54:00,73.9,65.5,30.16,NW,315,0.0,2.0,75,0.00,,,0.00,meteohub,2013-05-28 01:54:00,
2013-05-27 21:59:00,73.8,65.3,30.16,East,90,0.0,2.0,75,0.00,,,0.00,meteohub,2013-05-28 01:59:00,
2013-05-27 22:04:00,73.8,65.7,30.16,NE,45,2.0,2.0,76,0.00,,,0.00,meteohub,2013-05-28 02:04:00,
2013-05-27 22:09:00,73.6,65.5,30.17,East,90,0.0,3.0,76,0.00,,,0.00,meteohub,2013-05-28 02:09:00,
2013-05-27 22:14:00,73.6,65.5,30.17,NE,45,0.0,3.0,76,0.00,,,0.00,meteohub,2013-05-28 02:14:00,
2013-05-27 22:19:00,73.4,65.3,30.17,East,90,0.0,3.0,76,0.00,,,0.00,meteohub,2013-05-28 02:19:00,
2013-05-27 22:24:00,73.4,65.3,30.17,NW,315,0.0,2.0,76,0.00,,,0.00,meteohub,2013-05-28 02:24:00,
2013-05-27 22:29:00,73.2,65.1,30.17,East,90,0.0,2.0,76,0.00,,,0.00,meteohub,2013-05-28 02:29:00,
2013-05-27 22:34:00,73.2,65.7,30.17,SE,135,2.0,2.0,77,0.00,,,0.00,meteohub,2013-05-28 02:34:00,
2013-05-27 22:39:00,73.0,65.5,30.17,East,90,0.0,2.0,77,0.00,,,0.00,meteohub,2013-05-28 02:39:00,
2013-05-27 22:45:00,72.9,65.3,30.17,NE,45,0.0,2.0,77,0.00,,,0.00,meteohub,2013-05-28 02:45:00,
2013-05-27 22:50:00,72.9,65.7,30.17,NE,45,0.0,2.0,78,0.00,,,0.00,meteohub,2013-05-28 02:50:00,
2013-05-27 22:55:00,72.7,65.5,30.17,NE,45,0.0,2.0,78,0.00,,,0.00,meteohub,2013-05-28 02:55:00,
2013-05-27 23:00:00,72.5,65.7,30.17,NE,45,0.0,2.0,79,0.00,,,0.00,meteohub,2013-05-28 03:00:00,
2013-05-27 23:05:00,72.3,65.5,30.17,NE,45,0.0,0.0,79,0.00,,,0.00,meteohub,2013-05-28 03:05:00,
2013-05-27 23:10:00,72.1,65.7,30.17,NE,45,0.0,0.0,80,0.00,,,0.00,meteohub,2013-05-28 03:10:00,
2013-05-27 23:15:00,71.8,65.3,30.17,NE,45,0.0,0.0,80,0.00,,,0.00,meteohub,2013-05-28 03:15:00,
2013-05-27 23:20:00,71.6,65.5,30.17,NE,45,0.0,0.0,81,0.00,,,0.00,meteohub,2013-05-28 03:20:00,
2013-05-27 23:25:00,71.4,65.7,30.17,NE,45,0.0,0.0,82,0.00,,,0.00,meteohub,2013-05-28 03:25:00,
2013-05-27 23:30:00,71.2,65.5,30.17,NE,45,0.0,0.0,82,0.00,,,0.00,meteohub,2013-05-28 03:30:00,
2013-05-27 23:35:00,71.1,65.7,30.17,NE,45,0.0,0.0,83,0.00,,,0.00,meteohub,2013-05-28 03:35:00,
2013-05-27 23:40:00,70.9,65.5,30.17,NE,45,0.0,0.0,83,0.00,,,0.00,meteohub,2013-05-28 03:40:00,
2013-05-27 23:45:00,70.9,65.5,30.17,NE,45,0.0,0.0,83,0.00,,,0.00,meteohub,2013-05-28 03:45:00,
2013-05-27 23:50:00,70.7,65.3,30.17,NE,45,0.0,0.0,83,0.00,,,0.00,meteohub,2013-05-28 03:50:00,
2013-05-27 23:55:00,70.5,65.5,30.17,NE,45,0.0,0.0,84,0.00,,,0.00,meteohub,2013-05-28 03:55:00,